FW8218 Weather Reports


time (UTC)temp
C
wind
direction
speed
KPH
gust
KPH
rain 1hr
cm
rain 24hr
cm
rain mn
cm
humidity
%
barometer
mb
20260506202709 12 355 6.4 17.7 0.00 0.00 0.00 64 1012.5
20260506201708 12 41 8.0 17.7 0.00 0.00 0.00 63 1012.4
20260506201219 12 78 6.4 16.1 0.00 0.00 0.00 64 1012.3
20260506200719 12 71 4.8 16.1 0.00 0.00 0.00 64 1012.4
20260506200209 12 60 6.4 17.7 0.00 0.00 0.00 64 1012.3
20260506195716 12 36 6.4 17.7 0.00 0.00 0.00 64 1012.2
20260506194715 12 67 4.8 12.9 0.00 0.00 0.00 65 1012.1
20260506193711 12 29 3.2 16.1 0.00 0.00 0.00 66 1012.0
20260506193207 12 0 4.8 16.1 0.00 0.00 0.00 66 1012.0
20260506192712 12 76 8.0 16.1 0.00 0.00 0.00 66 1011.9
20260506192208 12 49 6.4 16.1 0.00 0.00 0.00 66 1011.9
20260506191717 12 56 4.8 14.5 0.00 0.00 0.00 67 1011.7
20260506191211 13 44 4.8 14.5 0.00 0.00 0.00 68 1011.7
20260506190735 13 21 3.2 14.5 0.00 0.00 0.00 67 1011.7
20260506190206 13 16 3.2 14.5 0.00 0.00 0.00 67 1011.6
20260506185706 13 28 3.2 14.5 0.00 0.00 0.00 65 1011.6
20260506185206 13 32 1.6 8.0 0.00 0.00 0.00 64 1011.4
20260506184713 13 27 3.2 11.3 0.00 0.00 0.00 64 1011.4
20260506184219 13 42 3.2 11.3 0.00 0.00 0.00 65 1011.3
20260506183710 13 39 3.2 11.3 0.00 0.00 0.00 65 1011.3
20260506183218 13 28 3.2 12.9 0.00 0.00 0.00 66 1011.2
20260506182710 12 55 3.2 12.9 0.00 0.00 0.00 67 1011.1
20260506182215 12 334 3.2 12.9 0.00 0.00 0.00 69 1011.0
20260506181717 12 5 3.2 16.1 0.00 0.00 0.00 70 1011.0
20260506180711 12 345 6.4 16.1 0.00 0.00 0.00 71 1010.9
20260506180212 12 40 6.4 16.1 0.00 0.00 0.00 71 1010.8
20260506175717 12 11 8.0 19.3 0.00 0.00 0.00 71 1010.8
20260506175212 12 335 8.0 19.3 0.00 0.00 0.00 72 1010.7
20260506174712 12 15 6.4 19.3 0.00 0.00 0.00 72 1010.7
20260506174218 12 30 8.0 17.7 0.00 0.00 0.00 72 1010.6
20260506173209 12 342 8.0 19.3 0.00 0.00 0.00 73 1010.5
20260506172211 12 336 8.0 20.9 0.00 0.00 0.00 73 1010.5
20260506171712 12 5 9.7 22.5 0.00 0.00 0.00 73 1010.5
20260506170707 12 334 9.7 24.1 0.00 0.00 0.00 73 1010.4
20260506165705 12 336 9.7 19.3 0.00 0.00 0.00 72 1010.3
20260506165207 12 13 9.7 19.3 0.00 0.00 0.00 72 1010.3
20260506164715 12 17 8.0 19.3 0.00 0.00 0.00 72 1010.3
20260506164210 12 338 8.0 19.3 0.00 0.00 0.00 72 1010.2
20260506163218 12 61 8.0 25.7 0.00 0.00 0.00 72 1010.2
20260506162717 12 29 9.7 25.7 0.00 0.00 0.00 72 1010.2
20260506162224 12 55 9.7 20.9 0.00 0.00 0.00 72 1010.2
20260506161713 12 335 11.3 20.9 0.00 0.00 0.00 72 1010.2
20260506161217 12 328 9.7 20.9 0.00 0.00 0.00 72 1010.2
20260506160714 12 5 8.0 20.9 0.00 0.00 0.00 71 1010.2
20260506160222 12 329 9.7 24.1 0.00 0.00 0.00 71 1010.2
20260506155717 12 348 12.9 25.7 0.00 0.00 0.00 71 1010.1
20260506154719 13 350 12.9 29.0 0.00 0.00 0.00 71 1010.1
20260506154218 13 334 14.5 29.0 0.00 0.00 0.00 71 1010.2
20260506153715 13 319 14.5 29.0 0.00 0.00 0.00 70 1010.2
20260506153216 13 349 9.7 24.1 0.00 0.00 0.00 70 1010.2
20260506152710 13 17 12.9 24.1 0.00 0.00 0.00 70 1010.2
20260506152206 13 5 14.5 24.1 0.00 0.00 0.00 69 1010.1
20260506151206 13 343 11.3 27.4 0.00 0.00 0.00 69 1010.0
20260506150731 13 343 11.3 27.4 0.00 0.00 0.00 69 1010.0
20260506150210 13 327 11.3 25.7 0.00 0.00 0.00 68 1010.0
20260506145713 14 327 9.7 25.7 0.00 0.00 0.00 68 1010.1
20260506145209 13 0 11.3 32.2 0.00 0.00 0.00 67 1010.0
20260506143713 13 341 9.7 27.4 0.00 0.00 0.00 68 1009.9
20260506143217 13 346 11.3 27.4 0.00 0.00 0.00 69 1009.9
20260506142706 14 338 9.7 27.4 0.00 0.00 0.00 67 1010.0
20260506142216 14 355 8.0 27.4 0.00 0.00 0.00 68 1010.0
20260506141217 14 0 11.3 27.4 0.00 0.00 0.00 68 1010.0
20260506140713 15 5 9.7 27.4 0.00 0.00 0.00 68 1010.0
20260506140212 14 307 12.9 33.8 0.00 0.00 0.00 69 1010.0
20260506135711 14 24 14.5 33.8 0.00 0.00 0.00 68 1010.0
20260506135210 14 19 12.9 33.8 0.00 0.00 0.00 69 1010.0
20260506134710 15 355 11.3 25.7 0.00 0.00 0.00 69 1009.9
20260506134212 14 322 11.3 25.7 0.00 0.00 0.00 70 1009.9
20260506133710 13 28 12.9 27.4 0.00 0.00 0.00 71 1009.9
20260506133212 13 333 11.3 27.4 0.00 0.00 0.00 72 1010.0
20260506132216 13 15 11.3 27.4 0.00 0.00 0.00 73 1009.9
20260506130712 13 12 9.7 25.7 0.00 0.00 0.00 74 1010.0
20260506130212 13 308 11.3 29.0 0.00 0.00 0.00 74 1009.9
20260506125705 13 340 12.9 29.0 0.00 0.00 0.00 74 1009.7
20260506125218 13 345 11.3 27.4 0.00 0.00 0.00 72 1009.8
20260506124214 13 344 11.3 27.4 0.00 0.00 0.00 73 1009.7
20260506123715 13 319 11.3 27.4 0.00 0.00 0.00 71 1009.7
20260506123214 14 0 11.3 24.1 0.00 0.00 0.00 69 1009.6
20260506122712 13 283 11.3 25.7 0.00 0.00 0.00 71 1009.6
20260506122206 13 326 11.3 25.7 0.00 0.00 0.00 70 1009.6
20260506121219 13 279 11.3 27.4 0.00 0.00 0.00 72 1009.7
20260506120716 13 340 12.9 27.4 0.00 0.00 0.00 72 1009.6
20260506120211 13 312 12.9 27.4 0.00 0.00 0.00 70 1009.5
20260506115711 13 324 11.3 25.7 0.00 0.00 0.00 70 1009.5
20260506115215 13 355 9.7 25.7 0.00 0.00 0.00 70 1009.6
20260506114712 13 5 11.3 25.7 0.00 0.00 0.00 69 1009.6
20260506114209 13 5 12.9 25.7 0.00 0.00 0.00 69 1009.6
20260506113717 13 346 9.7 22.5 0.00 0.00 0.00 69 1009.6
20260506112712 13 18 9.7 27.4 0.00 0.00 0.00 72 1009.5
20260506112219 13 346 11.3 27.4 0.00 0.00 0.00 71 1009.5
20260506111714 13 348 12.9 27.4 0.00 0.00 0.00 70 1009.5
20260506111207 13 28 11.3 27.4 0.00 0.00 0.00 69 1009.6
20260506110714 13 53 9.7 24.1 0.00 0.00 0.00 70 1009.6
20260506105711 13 30 11.3 24.1 0.00 0.00 0.00 71 1009.5
20260506105211 13 331 11.3 20.9 0.00 0.00 0.00 71 1009.5
20260506104719 13 11 11.3 27.4 0.00 0.00 0.00 71 1009.4
20260506104208 13 355 9.7 27.4 0.00 0.00 0.00 71 1009.5
20260506103712 13 355 9.7 30.6 0.00 0.00 0.00 72 1009.5
20260506103205 13 332 11.3 30.6 0.00 0.00 0.00 71 1009.5
20260506101706 14 0 11.3 22.5 0.00 0.00 0.00 70 1009.4
20260506101218 14 329 9.7 22.5 0.00 0.00 0.00 69 1009.4
20260506100706 14 15 9.7 22.5 0.00 0.00 0.00 68 1009.4
20260506095706 14 304 9.7 25.7 0.00 0.00 0.00 69 1009.3
20260506095219 13 355 11.3 25.7 0.00 0.00 0.00 70 1009.4
20260506094719 13 334 11.3 24.1 0.00 0.00 0.00 70 1009.4
20260506094206 13 319 9.7 22.5 0.00 0.00 0.00 70 1009.4
20260506093710 13 34 8.0 22.5 0.00 0.00 0.00 71 1009.4
20260506092717 13 347 9.7 25.7 0.00 0.00 0.00 72 1009.3
20260506092214 13 319 12.9 25.7 0.00 0.00 0.00 74 1009.3
20260506091717 13 347 12.9 25.7 0.00 0.00 0.00 73 1009.3
20260506091206 13 338 9.7 22.5 0.00 0.00 0.00 73 1009.3
20260506090714 13 346 9.7 22.5 0.00 0.00 0.00 73 1009.3
20260506090206 13 28 9.7 19.3 0.00 0.00 0.00 73 1009.3
20260506085710 13 355 9.7 19.3 0.00 0.00 0.00 73 1009.2
20260506085209 13 11 8.0 20.9 0.00 0.00 0.00 72 1009.2
20260506084720 13 38 8.0 29.0 0.00 0.00 0.00 74 1009.2
20260506084217 13 321 9.7 29.0 0.00 0.00 0.00 74 1009.1
20260506083708 13 345 9.7 29.0 0.00 0.00 0.00 74 1009.1
20260506083213 13 71 9.7 20.9 0.00 0.00 0.00 74 1009.0
20260506082716 12 340 11.3 24.1 0.00 0.00 0.00 76 1009.0
20260506082215 12 355 9.7 24.1 0.00 0.00 0.00 76 1009.1
20260506081219 12 18 9.7 20.9 0.00 0.00 0.00 79 1009.1
20260506080208 12 355 11.3 27.4 0.00 0.00 0.00 79 1009.1
20260506073217 11 0 12.9 25.7 0.00 0.00 0.00 80 1009.0
20260506072706 11 326 9.7 25.7 0.00 0.00 0.00 80 1009.0
20260506072209 11 315 9.7 25.7 0.00 0.00 0.00 80 1009.0
20260506071712 11 45 9.7 24.1 0.00 0.00 0.00 80 1009.0
20260506071216 11 19 9.7 24.1 0.00 0.00 0.00 80 1009.0
20260506070719 11 77 9.7 22.5 0.00 0.00 0.00 80 1009.0
20260506062218 11 5 8.0 22.5 0.00 0.00 0.00 81 1008.8
20260506061713 11 340 6.4 22.5 0.00 0.00 0.00 81 1008.8
20260506061218 11 344 6.4 19.3 0.00 0.00 0.00 81 1008.8
20260506060706 11 26 9.7 22.5 0.00 0.00 0.00 81 1008.7
20260506060212 10 299 9.7 22.5 0.00 0.00 0.00 81 1008.7
20260506051220 10 340 6.4 20.9 0.00 0.00 0.00 80 1008.7
20260506050708 10 26 6.4 20.9 0.00 0.00 0.00 80 1008.8
20260506050218 10 341 4.8 17.7 0.00 0.00 0.00 80 1008.8
20260506044709 10 70 6.4 20.9 0.00 0.00 0.00 79 1008.9
20260506044219 10 342 6.4 22.5 0.00 0.00 0.00 79 1008.9
20260506042715 10 11 9.7 25.7 0.00 0.00 0.00 79 1008.8
20260506042218 10 325 9.7 25.7 0.00 0.00 0.00 79 1008.8
20260506041719 10 349 8.0 24.1 0.00 0.00 0.00 79 1008.8
20260506041208 10 0 8.0 24.1 0.00 0.00 0.00 79 1008.9
20260506040708 10 38 6.4 24.1 0.00 0.00 0.00 79 1008.8
20260506035714 10 13 8.0 22.5 0.00 0.00 0.00 79 1008.9
20260506035215 10 30 8.0 22.5 0.00 0.00 0.00 79 1008.8
20260506034713 10 13 8.0 20.9 0.00 0.00 0.00 79 1008.8
20260506034208 10 313 8.0 20.9 0.00 0.00 0.00 79 1008.9
20260506032717 10 342 6.4 16.1 0.00 0.00 0.00 79 1009.0
20260506031705 10 315 6.4 19.3 0.00 0.00 0.00 79 1009.0
20260506030706 10 335 8.0 19.3 0.00 0.00 0.00 77 1009.1
20260506030213 10 67 6.4 19.3 0.00 0.00 0.00 77 1009.1
20260506025714 10 332 4.8 17.7 0.00 0.00 0.00 76 1009.3
20260506025217 10 331 6.4 19.3 0.00 0.00 0.00 76 1009.3
20260506024740 10 355 8.0 19.3 0.00 0.00 0.00 76 1009.3
20260506024211 10 17 6.4 17.7 0.00 0.00 0.00 76 1009.3
20260506023712 10 37 6.4 17.7 0.00 0.00 0.00 76 1009.4
20260506023219 10 336 6.4 17.7 0.00 0.00 0.00 76 1009.3
20260506022713 10 333 6.4 17.7 0.00 0.00 0.00 77 1009.4
20260506022213 10 55 4.8 17.7 0.00 0.00 0.00 78 1009.4
20260506020716 10 36 4.8 16.1 0.00 0.00 0.00 79 1009.5
20260506020214 10 19 3.2 16.1 0.00 0.00 0.00 79 1009.5
20260506015219 10 47 3.2 14.5 0.00 0.00 0.00 79 1009.5
20260506014718 10 15 3.2 16.1 0.00 0.00 0.00 79 1009.5
20260506013708 10 350 4.8 16.1 0.00 0.00 0.00 79 1009.5
20260506013207 10 30 4.8 19.3 0.00 0.00 0.00 79 1009.5
20260506012715 10 51 4.8 19.3 0.00 0.00 0.00 79 1009.5
20260506011719 10 41 6.4 24.1 0.00 0.00 0.00 79 1009.6
20260506011209 10 18 6.4 24.1 0.00 0.00 0.00 78 1009.5
20260506010207 10 341 6.4 20.9 0.00 0.00 0.00 78 1009.5
20260506005707 10 11 6.4 20.9 0.00 0.00 0.00 78 1009.6
20260506005211 10 18 4.8 17.7 0.00 0.00 0.00 78 1009.6
20260506004719 10 26 4.8 17.7 0.00 0.00 0.00 78 1009.7
20260506004209 10 11 4.8 12.9 0.00 0.00 0.00 78 1009.8
20260506003717 10 70 4.8 12.9 0.00 0.00 0.00 78 1009.7
20260506002717 10 0 4.8 14.5 0.00 0.00 0.00 77 1009.9
20260506002210 9 54 6.4 14.5 0.00 0.00 0.00 77 1009.9
20260506001715 9 25 4.8 14.5 0.00 0.00 0.00 77 1009.9
20260506001208 9 5 4.8 14.5 0.00 0.00 0.00 78 1010.0
20260506000710 9 53 4.8 14.5 0.00 0.00 0.00 78 1010.1
20260505235717 9 9 4.8 17.7 0.00 0.00 0.00 77 1010.1
20260505235211 9 338 4.8 17.7 0.00 0.00 0.00 77 1010.2
20260505234216 9 41 6.4 16.1 0.00 0.00 0.00 76 1010.2
20260505233718 9 0 4.8 14.5 0.00 0.00 0.00 76 1010.2
20260505233211 9 341 4.8 14.5 0.00 0.00 0.00 76 1010.3
20260505232714 9 19 6.4 14.5 0.00 0.00 0.00 76 1010.4
20260505232218 9 40 4.8 14.5 0.00 0.00 0.00 75 1010.4
20260505231711 9 32 4.8 14.5 0.00 0.00 0.00 75 1010.4
20260505231215 9 9 4.8 14.5 0.00 0.00 0.00 75 1010.4
20260505230212 9 5 6.4 17.7 0.00 0.00 0.00 75 1010.5
20260505225713 10 100 6.4 17.7 0.00 0.00 0.00 75 1010.5
20260505225205 10 325 6.4 17.7 0.00 0.00 0.00 75 1010.5
20260505224211 10 344 4.8 19.3 0.00 0.00 0.00 74 1010.4
20260505223712 10 38 4.8 19.3 0.00 0.00 0.00 74 1010.4
20260505223212 10 321 6.4 19.3 0.00 0.00 0.00 74 1010.5
20260505222707 10 0 6.4 19.3 0.00 0.00 0.00 74 1010.5
20260505221717 10 36 6.4 19.3 0.00 0.00 0.00 73 1010.6
20260505221219 10 336 6.4 16.1 0.00 0.00 0.00 73 1010.6
20260505220248 10 5 4.8 19.3 0.00 0.00 0.00 73 1010.7
20260505215712 10 355 4.8 19.3 0.00 0.00 0.00 73 1010.7
20260505214708 10 44 6.4 16.1 0.00 0.00 0.00 73 1010.8
20260505214207 10 51 4.8 16.1 0.00 0.00 0.00 73 1010.8
20260505213705 10 52 4.8 17.7 0.00 0.00 0.00 73 1010.9
20260505213215 10 43 6.4 17.7 0.00 0.00 0.00 73 1010.8
20260505212712 10 33 6.4 14.5 0.00 0.00 0.00 73 1010.8
20260505212207 10 345 4.8 14.5 0.00 0.00 0.00 73 1010.9
20260505211709 10 337 4.8 14.5 0.00 0.00 0.00 73 1010.8
20260505211213 10 0 4.8 14.5 0.00 0.00 0.00 73 1010.9
20260505210716 10 57 6.4 14.5 0.00 0.00 0.00 73 1010.9
20260505210214 10 79 4.8 14.5 0.00 0.00 0.00 73 1011.0
20260505205718 10 38 4.8 17.7 0.00 0.00 0.00 73 1011.0
20260505205216 10 29 4.8 17.7 0.00 0.00 0.00 73 1011.0
20260505204712 10 62 6.4 16.1 0.00 0.00 0.00 73 1011.0
20260505204208 10 48 4.8 19.3 0.00 0.00 0.00 73 1011.0